"Pseudo-MPEC" for A10gsNa

Created 2019 Oct 18 18:07:03 UT using Find_Orb

Click here for an explanation of pseudo-MPECs

 
 Astrometry: 
     A10gsNa  C2019 10 04.27817218 48 55.67 +03 05 04.8    ~A4J7 18.93oVNEOCPT08
     A10gsNa  C2019 10 04.28141518 48 55.64 +03 05 05.8    ~A4J7 18.66oVNEOCPT08
     A10gsNa  C2019 10 04.28652418 48 55.67 +03 05 06.0    ~A4J7 18.54oVNEOCPT08
     A10gsNa  C2019 10 04.29766318 48 55.62 +03 05 07.2    ~A4J7 18.72oVNEOCPT08

Station data:
(T08) ATLAS-MLO, Mauna Loa  (N19.535772 W155.576400)  US/Hawaii.  Observers
   L. Denneau, A. Heinze, H. Weiland, J. Tonry, H. Flewelling, A.
   Fitzsimmons, D. Young, B. Stalder. Measurers L. Denneau, A. Heinze, J.
   Tonry. 0.5-m f/2.0 Schmidt + CCD.

Orbital elements:  A10gsNa
   Perihelion 2020 Jan 28.007599 +/- 232 TT =  0:10:56 (JD 2458876.507599)
Epoch 2019 Oct  4.0 TT = JDT 2458760.5   Earth MOID: 0.0190   Ve: 0.0301
M 223.42033312 +/- 100              (J2000 ecliptic)          AutoNEOCP
n   1.17733379 +/- 0.773            Peri.  193.59816 +/- 80
a   0.88825223 +/- 0.389            Node   318.96810 +/- 25
e   0.1789555 +/- 0.201             Incl.    4.35852 +/- 29
P   0.84/305.77d           H 20.4   G  0.15   U 12.6  SR
q 0.72929455 +/- 1.43    Q 1.04720991 +/- 18.4
From 4 observations 2019 Oct. 4 (28.1 min); mean residual 0".23
Residuals in arcseconds: 
191004 T08  .02+  .29-    191004 T08  .37+  .02-    
191004 T08  .28-  .35+    191004 T08  .10-  .06-    

Ephemerides (geocentric):
Date (UTC) HH   RA              Dec         delta   r     elong  mag " sig PA
---- -- -- --  -------------   -----------  ------ ------ -----  --- ---- ---
2019 10 18 18  18 53 48.997   +03 33 17.94  .14401 .98472  81.2 19.4 1049 177
2019 10 18 19  18 53 49.636   +03 33 21.91  .14405 .98462  81.2 19.4 1052 177
2019 10 18 20  18 53 50.273   +03 33 25.87  .14409 .98452  81.2 19.4 1056 177
2019 10 18 21  18 53 50.908   +03 33 29.83  .14414 .98443  81.1 19.4 1060 177
2019 10 18 22  18 53 51.541   +03 33 33.77  .14418 .98433  81.1 19.4 1064 177
2019 10 18 23  18 53 52.172   +03 33 37.71  .14422 .98423  81.1 19.4 1068 176
2019 10 19 00  18 53 52.800   +03 33 41.64  .14426 .98413  81.0 19.4 1072 176
2019 10 19 01  18 53 53.426   +03 33 45.55  .14430 .98403  81.0 19.4 1076 176
2019 10 19 02  18 53 54.050   +03 33 49.46  .14434 .98394  81.0 19.4 1080 176
2019 10 19 03  18 53 54.672   +03 33 53.36  .14439 .98384  80.9 19.4 1084 176
2019 10 19 04  18 53 55.291   +03 33 57.25  .14443 .98374  80.9 19.4 1088 176
2019 10 19 05  18 53 55.908   +03 34 01.14  .14447 .98364  80.9 19.4 1092 176
2019 10 19 06  18 53 56.523   +03 34 05.01  .14451 .98354  80.8 19.4 1096 176
2019 10 19 07  18 53 57.135   +03 34 08.87  .14455 .98344  80.8 19.4 1100 176
2019 10 19 08  18 53 57.746   +03 34 12.73  .14459 .98335  80.8 19.4 1104 176
2019 10 19 09  18 53 58.353   +03 34 16.57  .14463 .98325  80.7 19.4 1108 176
2019 10 19 10  18 53 58.959   +03 34 20.41  .14468 .98315  80.7 19.4 1112 176
2019 10 19 11  18 53 59.562   +03 34 24.23  .14472 .98305  80.7 19.4 1116 176
2019 10 19 12  18 54 00.163   +03 34 28.05  .14476 .98295  80.6 19.4 1120 176
2019 10 19 13  18 54 00.762   +03 34 31.86  .14480 .98285  80.6 19.4 1124 176
2019 10 19 14  18 54 01.358   +03 34 35.66  .14484 .98275  80.6 19.4 1129 176
2019 10 19 15  18 54 01.952   +03 34 39.44  .14488 .98265  80.5 19.4 1133 176
2019 10 19 16  18 54 02.543   +03 34 43.22  .14492 .98256  80.5 19.4 1137 176
2019 10 19 17  18 54 03.133   +03 34 46.99  .14496 .98246  80.5 19.4 1141 176
2019 10 19 18  18 54 03.719   +03 34 50.75  .14500 .98236  80.4 19.4 1145 176
2019 10 19 19  18 54 04.304   +03 34 54.50  .14504 .98226  80.4 19.4 1149 175
2019 10 19 20  18 54 04.886   +03 34 58.24  .14508 .98216  80.3 19.4 1154 175
2019 10 19 21  18 54 05.465   +03 35 01.97  .14512 .98206  80.3 19.4 1158 175
2019 10 19 22  18 54 06.043   +03 35 05.69  .14516 .98196  80.3 19.5 1162 175
2019 10 19 23  18 54 06.617   +03 35 09.41  .14520 .98186  80.2 19.5 1166 175
2019 10 20 00  18 54 07.190   +03 35 13.11  .14524 .98176  80.2 19.5 1171 175
2019 10 20 01  18 54 07.760   +03 35 16.80  .14528 .98166  80.2 19.5 1175 175
2019 10 20 02  18 54 08.327   +03 35 20.48  .14532 .98156  80.1 19.5 1179 175
2019 10 20 03  18 54 08.892   +03 35 24.15  .14536 .98146  80.1 19.5 1184 175
2019 10 20 04  18 54 09.455   +03 35 27.81  .14540 .98136  80.1 19.5 1188 175
2019 10 20 05  18 54 10.015   +03 35 31.46  .14544 .98126  80.0 19.5 1192 175
2019 10 20 06  18 54 10.572   +03 35 35.10  .14548 .98116  80.0 19.5 1197 175
2019 10 20 07  18 54 11.128   +03 35 38.74  .14552 .98106  80.0 19.5 1201 175
2019 10 20 08  18 54 11.680   +03 35 42.36  .14556 .98096  79.9 19.5 1205 175
2019 10 20 09  18 54 12.230   +03 35 45.97  .14560 .98086  79.9 19.5 1210 175
2019 10 20 10  18 54 12.778   +03 35 49.57  .14564 .98076  79.9 19.5 1214 175
2019 10 20 11  18 54 13.323   +03 35 53.16  .14568 .98066  79.8 19.5 1219 175
2019 10 20 12  18 54 13.866   +03 35 56.74  .14572 .98056  79.8 19.5 1223 175
2019 10 20 13  18 54 14.406   +03 36 00.31  .14576 .98046  79.8 19.5 1227 175
2019 10 20 14  18 54 14.943   +03 36 03.86  .14580 .98036  79.7 19.5 1232 175
2019 10 20 15  18 54 15.478   +03 36 07.41  .14584 .98026  79.7 19.5 1236 175
2019 10 20 16  18 54 16.011   +03 36 10.95  .14587 .98016  79.7 19.5 1241 174
2019 10 20 17  18 54 16.541   +03 36 14.48  .14591 .98006  79.6 19.5 1245 174